Aktuell
News
Messwerte
Diagramme
Archiv
Vorhersage
Regen
Wettergefahren

Astro & Geo
Gesundheit
Pegel
Gästebuch
Kontakt
Impressum
Datenschutz
App

Stark bewölkt bei 20.0 °C – Luftdruck: 1011.8 hPa – Wind: SSW 4.7 km/h
Messwerte von 07:55 Uhr; Warnsymbol: Datenbasis DWD; Wetterzustand powered by
Übersicht
Heute
Gestern
Vor 1 Jahr
Info
Vor 1 Jahr
 
Messwerte von Freitag, 05.07.2019
Symbol
Zeitpunkt
Wetter-
zustand
Zeitpunkt
Temperatur
Zeitpunkt
Luftfeuchte
Taupunkt
Zeitpunkt
Luftdruck
Zeitpunkt
Wind
Zeitpunkt
Windböen
Max 15 Min.
Wind-
richtung
Zeitpunkt
Regen
Summe 1 h
Regenrate
Max 15 Min.
UV-Index
Max 15 Min.
Pegel Köln
Zeitpunkt
Warnlage
Zeitpunkt
00:15 Leicht bewölkt3 18.9 °C 51 %
8.5 °C
1019.1 hPa 0.6 km/h
0 Bft
4.7 km/h
1 Bft
WNW -
0.0 mm/h
0.0 277 cm
00:30 Wolkig3 18.7 °C 52 %
8.6 °C
1019.1 hPa 0.0 km/h
0 Bft
1.4 km/h
1 Bft
WNW -
0.0 mm/h
0.0 278 cm
00:45 Wolkig3 18.6 °C 52 %
8.5 °C
1019.0 hPa 0.0 km/h
0 Bft
0.0 km/h
0 Bft
WNW -
0.0 mm/h
0.0 277 cm
01:00 Bedeckt2 18.4 °C 53 %
8.6 °C
1019.1 hPa 0.0 km/h
0 Bft
0.0 km/h
0 Bft
WNW 0.00 mm
0.0 mm/h
0.0 278 cm
01:15 Wolkig3 18.3 °C 54 %
8.8 °C
1019.0 hPa 0.0 km/h
0 Bft
0.0 km/h
0 Bft
WNW -
0.0 mm/h
0.0 278 cm
01:30 Wolkig3 18.1 °C 54 %
8.6 °C
1018.9 hPa 0.0 km/h
0 Bft
0.0 km/h
0 Bft
NW -
0.0 mm/h
0.0 279 cm
01:45 Wolkig3 17.9 °C 55 %
8.7 °C
1018.9 hPa 0.0 km/h
0 Bft
0.0 km/h
0 Bft
NW -
0.0 mm/h
0.0 278 cm
02:00 Bedeckt2 17.8 °C 55 %
8.6 °C
1018.8 hPa 0.0 km/h
0 Bft
0.0 km/h
0 Bft
WNW 0.00 mm
0.0 mm/h
0.0 278 cm
02:15 Wolkig3 17.7 °C 56 %
8.8 °C
1018.7 hPa 0.0 km/h
0 Bft
0.0 km/h
0 Bft
WNW -
0.0 mm/h
0.0 278 cm
02:30 Leicht bewölkt3 17.6 °C 56 %
8.7 °C
1018.6 hPa 0.0 km/h
0 Bft
0.0 km/h
0 Bft
WNW -
0.0 mm/h
0.0 278 cm
02:45 Wolkig3 17.5 °C 57 %
8.9 °C
1018.5 hPa 0.0 km/h
0 Bft
0.0 km/h
0 Bft
WNW -
0.0 mm/h
0.0 278 cm
03:00 Wolkig3 17.6 °C 57 %
9.0 °C
1018.1 hPa 0.0 km/h
0 Bft
0.0 km/h
0 Bft
SSW 0.00 mm
0.0 mm/h
0.0 278 cm
03:15 Wolkig3 17.6 °C 57 %
9.0 °C
1018.3 hPa 0.0 km/h
0 Bft
0.0 km/h
0 Bft
WNW -
0.0 mm/h
0.0 278 cm
03:30 Wolkig3 17.6 °C 58 %
9.2 °C
1018.3 hPa 1.4 km/h
1 Bft
6.5 km/h
2 Bft
WNW -
0.0 mm/h
0.0 278 cm
03:45 Leicht bewölkt3 17.5 °C 58 %
9.1 °C
1018.4 hPa 3.2 km/h
1 Bft
6.5 km/h
2 Bft
NW -
0.0 mm/h
0.0 278 cm
04:00 Bedeckt2 17.3 °C 60 %
9.5 °C
1018.4 hPa 3.2 km/h
1 Bft
6.5 km/h
2 Bft
W 0.00 mm
0.0 mm/h
0.0 278 cm
04:15 Leicht bewölkt3 17.2 °C 61 %
9.6 °C
1018.2 hPa 1.4 km/h
1 Bft
4.7 km/h
1 Bft
NW -
0.0 mm/h
0.0 278 cm
04:30 Leicht bewölkt3 17.1 °C 62 %
9.8 °C
1018.2 hPa 0.0 km/h
0 Bft
1.4 km/h
1 Bft
W -
0.0 mm/h
0.0 278 cm
04:45 Leicht bewölkt3 16.9 °C 62 %
9.6 °C
1018.0 hPa 3.2 km/h
1 Bft
4.7 km/h
1 Bft
WNW -
0.0 mm/h
0.0 279 cm
05:00 Stark bewölkt3 16.8 °C 63 %
9.7 °C
1018.1 hPa 1.4 km/h
1 Bft
4.7 km/h
1 Bft
W 0.00 mm
0.0 mm/h
0.0 278 cm
05:15 Leicht bewölkt3 16.7 °C 64 %
9.9 °C
1018.0 hPa 3.2 km/h
1 Bft
6.5 km/h
2 Bft
W -
0.0 mm/h
0.0 278 cm
05:30 Leicht bewölkt3 16.7 °C 65 %
10.1 °C
1018.1 hPa 0.0 km/h
0 Bft
4.7 km/h
1 Bft
WNW -
0.0 mm/h
0.0 278 cm
05:45 Leicht bewölkt3 16.7 °C 65 %
10.1 °C
1017.9 hPa 0.0 km/h
0 Bft
0.0 km/h
0 Bft
SW -
0.0 mm/h
0.0 279 cm
06:00 Leicht bewölkt3 16.7 °C 66 %
10.3 °C
1017.8 hPa 0.0 km/h
0 Bft
0.0 km/h
0 Bft
NW 0.00 mm
0.0 mm/h
0.0 278 cm
06:15 Leicht bewölkt3 16.7 °C 66 %
10.3 °C
1017.9 hPa 0.0 km/h
0 Bft
0.0 km/h
0 Bft
WSW -
0.0 mm/h
0.0 277 cm
06:30 Leicht bewölkt3 16.7 °C 67 %
10.5 °C
1017.8 hPa 0.0 km/h
0 Bft
0.0 km/h
0 Bft
NW -
0.0 mm/h
0.0 278 cm
06:45 Leicht bewölkt3 16.8 °C 67 %
10.6 °C
1017.9 hPa 1.4 km/h
1 Bft
4.7 km/h
1 Bft
NW -
0.0 mm/h
0.0 278 cm
07:00 Stark bewölkt3 16.9 °C 67 %
10.7 °C
1017.9 hPa 0.0 km/h
0 Bft
1.4 km/h
1 Bft
WNW 0.00 mm
0.0 mm/h
0.0 278 cm
07:15 Wolkig3 17.2 °C 67 %
11.0 °C
1017.7 hPa 1.4 km/h
1 Bft
6.5 km/h
2 Bft
SSW -
0.0 mm/h
0.0 278 cm
07:30 Wolkig3 17.4 °C 67 %
11.2 °C
1017.9 hPa 0.0 km/h
0 Bft
1.4 km/h
1 Bft
NW -
0.0 mm/h
0.0 277 cm
07:45 Wolkig3 17.7 °C 67 %
11.5 °C
1017.8 hPa 0.0 km/h
0 Bft
0.0 km/h
0 Bft
WNW -
0.0 mm/h
0.0 278 cm
08:00 Wolkig3 17.9 °C 67 %
11.7 °C
1018.0 hPa 0.0 km/h
0 Bft
0.0 km/h
0 Bft
NW 0.00 mm
0.0 mm/h
0.8 278 cm
08:15 Wolkig3 17.9 °C 67 %
11.7 °C
1018.0 hPa 0.0 km/h
0 Bft
0.0 km/h
0 Bft
W -
0.0 mm/h
0.6 278 cm
08:30 Wolkig3 17.9 °C 68 %
11.9 °C
1018.1 hPa 4.7 km/h
1 Bft
13.0 km/h
3 Bft
N -
0.0 mm/h
0.0 278 cm
08:45 Wolkig3 17.9 °C 69 %
12.1 °C
1018.3 hPa 6.5 km/h
2 Bft
14.4 km/h
3 Bft
WNW -
0.0 mm/h
1.2 278 cm
09:00 Wolkig3 18.0 °C 69 %
12.2 °C
1018.3 hPa 4.7 km/h
1 Bft
14.4 km/h
3 Bft
W 0.00 mm
0.0 mm/h
1.2 278 cm
09:15 Wolkig3 18.2 °C 68 %
12.2 °C
1018.1 hPa 4.7 km/h
1 Bft
11.2 km/h
2 Bft
WNW -
0.0 mm/h
1.4 279 cm
09:30 Wolkig3 18.3 °C 68 %
12.3 °C
1018.2 hPa 4.7 km/h
1 Bft
11.2 km/h
2 Bft
SSW -
0.0 mm/h
1.4 279 cm
09:45 Wolkig3 18.6 °C 67 %
12.3 °C
1018.1 hPa 3.2 km/h
1 Bft
9.7 km/h
2 Bft
WSW -
0.0 mm/h
1.8 279 cm
10:00 Wolkig3 18.8 °C 67 %
12.5 °C
1017.9 hPa 4.7 km/h
1 Bft
13.0 km/h
3 Bft
S 0.00 mm
0.0 mm/h
2.2 278 cm
10:15 Wolkig3 19.2 °C 65 %
12.5 °C
1018.1 hPa 5.9 km/h
2 Bft
13.0 km/h
3 Bft
SW -
0.0 mm/h
2.5 279 cm
10:30 Leicht bewölkt3 19.5 °C 63 %
12.3 °C
1017.9 hPa 6.5 km/h
2 Bft
13.0 km/h
3 Bft
WSW -
0.0 mm/h
4.1 279 cm
10:45 Leicht bewölkt3 19.8 °C 60 %
11.8 °C
1018.1 hPa 6.5 km/h
2 Bft
14.4 km/h
3 Bft
WNW -
0.0 mm/h
3.1 279 cm
11:00 Leicht bewölkt3 20.2 °C 58 %
11.7 °C
1018.1 hPa 5.4 km/h
1 Bft
13.0 km/h
3 Bft
W 0.00 mm
0.0 mm/h
2.6 279 cm
11:15 Leicht bewölkt3 20.2 °C 54 %
10.6 °C
1018.2 hPa 6.5 km/h
2 Bft
16.2 km/h
3 Bft
WSW -
0.0 mm/h
2.8 279 cm
11:30 Leicht bewölkt3 20.4 °C 55 %
11.1 °C
1018.0 hPa 6.5 km/h
2 Bft
14.4 km/h
3 Bft
WSW -
0.0 mm/h
4.0 280 cm
11:45 Leicht bewölkt3 20.9 °C 54 %
11.2 °C
1017.9 hPa 4.7 km/h
1 Bft
16.2 km/h
3 Bft
WNW -
0.0 mm/h
5.0 280 cm
12:00 Wolkig3 21.4 °C 54 %
11.7 °C
1017.9 hPa 3.7 km/h
1 Bft
16.2 km/h
3 Bft
NW 0.00 mm
0.0 mm/h
6.5 280 cm
12:15 Wolkig3 21.4 °C 53 %
11.4 °C
1017.8 hPa 6.5 km/h
2 Bft
16.2 km/h
3 Bft
SSO -
0.0 mm/h
5.2 280 cm
12:30 Leicht bewölkt3 21.5 °C 53 %
11.5 °C
1017.8 hPa 6.5 km/h
2 Bft
13.0 km/h
3 Bft
W -
0.0 mm/h
5.0 279 cm
12:45 Leicht bewölkt3 22.2 °C 52 %
11.9 °C
1017.6 hPa 7.9 km/h
2 Bft
16.2 km/h
3 Bft
W -
0.0 mm/h
6.8 279 cm
13:00 Stark bewölkt3 22.6 °C 51 %
11.9 °C
1017.5 hPa 9.1 km/h
2 Bft
22.7 km/h
4 Bft
WSW 0.00 mm
0.0 mm/h
6.7 279 cm
13:15 Leicht bewölkt3 23.4 °C 50 %
12.4 °C
1017.4 hPa 6.5 km/h
2 Bft
19.4 km/h
3 Bft
W -
0.0 mm/h
6.5 280 cm
13:30 Leicht bewölkt3 23.3 °C 50 %
12.3 °C
1017.1 hPa 9.7 km/h
2 Bft
17.6 km/h
3 Bft
W -
0.0 mm/h
6.6 280 cm
13:45 Leicht bewölkt3 23.4 °C 51 %
12.7 °C
1017.0 hPa 7.9 km/h
2 Bft
16.2 km/h
3 Bft
W -
0.0 mm/h
5.5 281 cm
14:00 Wolkig3 23.8 °C 50 %
12.7 °C
1017.0 hPa 11.2 km/h
2 Bft
27.4 km/h
4 Bft
SW 0.00 mm
0.0 mm/h
6.5 281 cm
14:15 Wolkig3 24.4 °C 49 %
13.0 °C
1016.8 hPa 7.9 km/h
2 Bft
19.4 km/h
3 Bft
WNW -
0.0 mm/h
7.2 281 cm
14:30 Wolkig3 24.1 °C 49 %
12.7 °C
1016.8 hPa 10.3 km/h
2 Bft
22.7 km/h
4 Bft
W -
0.0 mm/h
6.3 280 cm
14:45 Leicht bewölkt3 24.2 °C 48 %
12.5 °C
1016.8 hPa 11.2 km/h
2 Bft
20.9 km/h
4 Bft
WSW -
0.0 mm/h
5.7 280 cm
15:00 Leicht bewölkt3 24.2 °C 47 %
12.2 °C
1016.8 hPa 11.2 km/h
2 Bft
20.9 km/h
4 Bft
WSW 0.00 mm
0.0 mm/h
5.3 281 cm
15:15 Leicht bewölkt3 24.3 °C 46 %
11.9 °C
1016.7 hPa 11.2 km/h
2 Bft
20.9 km/h
4 Bft
WSW -
0.0 mm/h
5.0 281 cm
15:30 Leicht bewölkt3 24.6 °C 46 %
12.2 °C
1016.6 hPa 11.2 km/h
2 Bft
19.4 km/h
3 Bft
WNW -
0.0 mm/h
4.8 281 cm
15:45 Leicht bewölkt3 25.0 °C 44 %
11.9 °C
1016.4 hPa 7.9 km/h
2 Bft
22.7 km/h
4 Bft
SSW -
0.0 mm/h
5.1 280 cm
16:00 Wolkig3 25.6 °C 43 %
12.1 °C
1016.0 hPa 8.6 km/h
2 Bft
17.6 km/h
3 Bft
W 0.00 mm
0.0 mm/h
5.3 281 cm
16:15 Leicht bewölkt3 26.1 °C 42 %
12.2 °C
1015.6 hPa 10.6 km/h
2 Bft
17.6 km/h
3 Bft
NNW -
0.0 mm/h
4.9 280 cm
16:30 Leicht bewölkt3 25.9 °C 42 %
12.0 °C
1015.5 hPa 9.7 km/h
2 Bft
25.9 km/h
4 Bft
WNW -
0.0 mm/h
4.3 280 cm
16:45 Leicht bewölkt3 26.1 °C 41 %
11.8 °C
1015.5 hPa 10.5 km/h
2 Bft
22.7 km/h
4 Bft
NW -
0.0 mm/h
4.1 280 cm
17:00 Wolkig3 25.9 °C 40 %
11.3 °C
1015.4 hPa 11.2 km/h
2 Bft
22.7 km/h
4 Bft
WSW 0.00 mm
0.0 mm/h
3.8 280 cm
17:15 Leicht bewölkt3 26.1 °C 40 %
11.4 °C
1015.4 hPa 9.7 km/h
2 Bft
25.9 km/h
4 Bft
WSW -
0.0 mm/h
3.6 280 cm
17:30 Leicht bewölkt3 26.6 °C 40 %
11.9 °C
1015.2 hPa 7.9 km/h
2 Bft
20.9 km/h
4 Bft
SW -
0.0 mm/h
3.2 280 cm
17:45 Leicht bewölkt3 26.3 °C 40 %
11.6 °C
1015.3 hPa 12.3 km/h
3 Bft
25.9 km/h
4 Bft
WSW -
0.0 mm/h
2.9 280 cm
18:00 Leicht bewölkt3 26.4 °C 40 %
11.7 °C
1015.0 hPa 8.6 km/h
2 Bft
17.6 km/h
3 Bft
W 0.00 mm
0.0 mm/h
2.4 280 cm
18:15 Leicht bewölkt3 26.1 °C 40 %
11.4 °C
1014.9 hPa 9.7 km/h
2 Bft
20.9 km/h
4 Bft
W -
0.0 mm/h
2.2 280 cm
18:30 Sonnig2 26.2 °C 39 %
11.1 °C
1014.7 hPa 11.2 km/h
2 Bft
25.9 km/h
4 Bft
W -
0.0 mm/h
2.1 280 cm
18:45 Leicht bewölkt3 26.3 °C 40 %
11.6 °C
1014.5 hPa 11.2 km/h
2 Bft
22.7 km/h
4 Bft
WNW -
0.0 mm/h
1.8 281 cm
19:00 Leicht bewölkt3 26.6 °C 39 %
11.5 °C
1014.4 hPa 7.9 km/h
2 Bft
20.9 km/h
4 Bft
WNW 0.00 mm
0.0 mm/h
1.5 281 cm
19:15 Leicht bewölkt3 26.1 °C 40 %
11.4 °C
1014.2 hPa 10.2 km/h
2 Bft
22.7 km/h
4 Bft
NNW -
0.0 mm/h
1.3 280 cm
19:30 Leicht bewölkt3 25.8 °C 41 %
11.5 °C
1014.1 hPa 9.7 km/h
2 Bft
20.9 km/h
4 Bft
NW -
0.0 mm/h
1.0 280 cm
19:45 Leicht bewölkt3 26.0 °C 41 %
11.7 °C
1014.0 hPa 7.9 km/h
2 Bft
19.4 km/h
3 Bft
NNW -
0.0 mm/h
1.0 279 cm
20:00 Leicht bewölkt3 25.7 °C 42 %
11.8 °C
1013.9 hPa 7.9 km/h
2 Bft
19.4 km/h
3 Bft
WNW 0.00 mm
0.0 mm/h
0.8 280 cm
20:15 Leicht bewölkt3 25.5 °C 43 %
12.0 °C
1013.7 hPa 6.5 km/h
2 Bft
14.4 km/h
3 Bft
W -
0.0 mm/h
0.6 279 cm
20:30 Leicht bewölkt3 25.3 °C 43 %
11.8 °C
1013.7 hPa 6.5 km/h
2 Bft
17.6 km/h
3 Bft
WNW -
0.0 mm/h
0.0 280 cm
20:45 Sonnig2 25.1 °C 44 %
12.0 °C
1013.7 hPa 7.1 km/h
2 Bft
14.4 km/h
3 Bft
NW -
0.0 mm/h
0.0 279 cm
21:00 Leicht bewölkt3 24.8 °C 44 %
11.7 °C
1013.7 hPa 4.7 km/h
1 Bft
11.2 km/h
2 Bft
WNW 0.00 mm
0.0 mm/h
0.0 279 cm
21:15 Leicht bewölkt3 24.4 °C 45 %
11.7 °C
1013.7 hPa 6.5 km/h
2 Bft
16.2 km/h
3 Bft
WNW -
0.0 mm/h
0.0 279 cm
21:30 Leicht bewölkt3 24.1 °C 46 %
11.7 °C
1013.7 hPa 4.7 km/h
1 Bft
14.4 km/h
3 Bft
NW -
0.0 mm/h
0.0 278 cm
21:45 Leicht bewölkt3 23.6 °C 47 %
11.6 °C
1013.9 hPa 4.7 km/h
1 Bft
13.0 km/h
3 Bft
W -
0.0 mm/h
0.0 278 cm
22:00 Wolkenlos2 23.2 °C 49 %
11.9 °C
1014.0 hPa 6.5 km/h
2 Bft
14.4 km/h
3 Bft
W 0.00 mm
0.0 mm/h
0.0 278 cm
22:15 Wolkenlos2 22.8 °C 49 %
11.5 °C
1014.2 hPa 4.7 km/h
1 Bft
14.4 km/h
3 Bft
NNW -
0.0 mm/h
0.0 279 cm
22:30 Wolkenlos2 22.4 °C 49 %
11.2 °C
1014.1 hPa 1.4 km/h
1 Bft
14.4 km/h
3 Bft
NNO -
0.0 mm/h
0.0 278 cm
22:45 Wolkenlos2 22.1 °C 50 %
11.2 °C
1014.2 hPa 3.2 km/h
1 Bft
11.2 km/h
2 Bft
NW -
0.0 mm/h
0.0 278 cm
23:00 Wolkenlos2 21.9 °C 50 %
11.0 °C
1014.2 hPa 3.2 km/h
1 Bft
7.9 km/h
2 Bft
NW 0.00 mm
0.0 mm/h
0.0 279 cm
23:15 Wolkenlos2 21.5 °C 52 %
11.2 °C
1014.2 hPa 1.4 km/h
1 Bft
4.7 km/h
1 Bft
WNW -
0.0 mm/h
0.0 278 cm
23:30 Wolkenlos2 21.1 °C 52 %
10.9 °C
1014.1 hPa 3.2 km/h
1 Bft
6.5 km/h
2 Bft
WNW -
0.0 mm/h
0.0 279 cm
23:45 Wolkenlos2 20.8 °C 52 %
10.6 °C
1014.0 hPa 1.4 km/h
1 Bft
6.5 km/h
2 Bft
WNW -
0.0 mm/h
0.0 279 cm
00:00 Wolkenlos2 20.6 °C 51 %
10.1 °C
1014.0 hPa 0.0 km/h
0 Bft
1.4 km/h
1 Bft
N 0.00 mm
0.0 mm/h
0.0 278 cm
Datenbasis Wetterzustand: ¹ Wetterstation Köln-Nippes (Stellwerk), ² powered by , ³ powered by OpenWeatherMap, CC BY-SA 4.0; Warnlage: DWD, Pegelonline, LANUV; Pegel Köln: Pegelonline
 
Extrem- und Durchschnittswerte
  Temperatur Luftfeuchte Luftdruck Wind Windböen Wind-
richtung
Regen UV-Index Pegel Köln KKT
Min

Max

Ø
16.6 °C
05:41 Uhr
26.6 °C
16:17 Uhr
21.3 °C
39.0 %
17:04 Uhr
69.0 %
08:33 Uhr
53.1 %
1013.7 hPa
20:08 Uhr
1019.2 hPa
00:34 Uhr
1016.8 hPa
 
 
13.0 km/h
14:46 Uhr
5.4 km/h
 
 
27.4 km/h
13:57 Uhr
 
 
 
WNW
 
 
 
 
0.00 mm
 
 
 
 
7.2
14:02 Uhr
 
277 cm
00:15 Uhr
281 cm
13:45 Uhr
 
ST
  Taupunkt   Wind Windböen   Regenrate Ozon Sonne Mond
Min

Max

Ø
8.2 °C
00:07 Uhr
13.2 °C
13:48 Uhr
11.1 °C
   
 
3 Bft
14:46 Uhr
5.4 km/h
 
 
4 Bft
13:57 Uhr
 
   
 
0.0 mm/h
00:00 Uhr
 
 
Hürth
159 μg/m³
21:00 Uhr
 
▲ 05:25 Uhr
▼ 21:48 Uhr
▲ 08:24 Uhr
▼ 23:56 Uhr
KKT = Klimatologischer Kenntag: ET = Eistag, FT = Frosttag, KT = Kalter Tag, ST = Sommertag, HT = Hitzetag, TN = Tropennacht, NT = Niederschlagstag, SH = Schneehöhe (Max Tag); Datenbasis Ozon: LANUV, Land NRW, dl-de/by-2-0
Für dieses Datum steht leider (noch) kein Tagesrückblick zur Verfügung.
 
Tagesgrafik
Grafik zum Vergrößern anklicken
 
Detaillierte Warnlage
















05.07.19

05.07.19

05.07.19

05.07.19

05.07.19

05.07.19

05.07.19
Datenbasis: DWD, Pegelonline, LANUV


Zurück zur Eingabemaske